owner,sensor,date,latitude,longitude,vertical_datum,mass_concentration_of_oxygen_in_sea_water,qcFlag 
SCCF RECON,ioos:station:SCCF:16:1,2009-10-01T00:00:00Z,26.4345,-81.9647,2.51,5.2,1111122 
SCCF RECON,ioos:station:SCCF:16:1,2009-10-01T01:00:00Z,26.4345,-81.9647,2.591,5.77,1111122 
SCCF RECON,ioos:station:SCCF:16:1,2009-10-01T02:00:00Z,26.4345,-81.9647,2.72,5.26,1111122 
SCCF RECON,ioos:station:SCCF:16:1,2009-10-01T03:00:00Z,26.4345,-81.9647,2.814,4.82,1111122 
SCCF RECON,ioos:station:SCCF:16:1,2009-10-01T04:00:00Z,26.4345,-81.9647,2.876,4.8,1111122 
SCCF RECON,ioos:station:SCCF:16:1,2009-10-01T05:00:00Z,26.4345,-81.9647,2.798,4.79,1111122 
SCCF RECON,ioos:station:SCCF:16:1,2009-10-01T06:00:00Z,26.4345,-81.9647,2.667,4.08,1111122 
SCCF RECON,ioos:station:SCCF:16:1,2009-10-01T07:00:00Z,26.4345,-81.9647,2.521,4.34,1111122 
SCCF RECON,ioos:station:SCCF:16:1,2009-10-01T08:00:00Z,26.4345,-81.9647,2.393,4.35,1111122 
SCCF RECON,ioos:station:SCCF:16:1,2009-10-01T09:00:00Z,26.4345,-81.9647,2.355,4.3,1111122 
SCCF RECON,ioos:station:SCCF:16:1,2009-10-01T10:00:00Z,26.4345,-81.9647,2.421,4.41,1111122 
SCCF RECON,ioos:station:SCCF:16:1,2009-10-01T11:00:00Z,26.4345,-81.9647,2.455,4.5,1111122 
SCCF RECON,ioos:station:SCCF:16:1,2009-10-01T12:00:00Z,26.4345,-81.9647,2.589,4.2,1111122 
SCCF RECON,ioos:station:SCCF:16:1,2009-10-01T13:00:00Z,26.4345,-81.9647,2.741,4.44,1111122 
SCCF RECON,ioos:station:SCCF:16:1,2009-10-01T14:00:00Z,26.4345,-81.9647,2.807,4.5,1111122 
SCCF RECON,ioos:station:SCCF:16:1,2009-10-01T15:00:00Z,26.4345,-81.9647,2.865,4.51,1111122 
SCCF RECON,ioos:station:SCCF:16:1,2009-10-01T16:00:00Z,26.4345,-81.9647,2.861,4.92,1111122 
SCCF RECON,ioos:station:SCCF:16:1,2009-10-01T17:00:00Z,26.4345,-81.9647,2.795,5.02,1111122 
SCCF RECON,ioos:station:SCCF:16:1,2009-10-01T18:00:00Z,26.4345,-81.9647,2.666,4.67,1111122 
SCCF RECON,ioos:station:SCCF:16:1,2009-10-01T19:00:00Z,26.4345,-81.9647,2.534,5.06,1111122 
SCCF RECON,ioos:station:SCCF:16:1,2009-10-01T20:00:00Z,26.4345,-81.9647,2.432,4.74,1111122 
SCCF RECON,ioos:station:SCCF:16:1,2009-10-01T21:00:00Z,26.4345,-81.9647,2.32,5.05,1111122 
SCCF RECON,ioos:station:SCCF:16:1,2009-10-01T22:00:00Z,26.4345,-81.9647,2.253,5.44,1111122 
SCCF RECON,ioos:station:SCCF:16:1,2009-10-01T23:00:00Z,26.4345,-81.9647,2.309,5.89,1111122 
SCCF RECON,ioos:station:SCCF:16:1,2009-10-02T00:00:00Z,26.4345,-81.9647,2.432,5.71,1111122 
SCCF RECON,ioos:station:SCCF:16:1,2009-10-02T01:00:00Z,26.4345,-81.9647,2.614,5.69,1111122 
SCCF RECON,ioos:station:SCCF:16:1,2009-10-02T02:00:00Z,26.4345,-81.9647,2.733,6.21,1111122 
SCCF RECON,ioos:station:SCCF:16:1,2009-10-02T03:00:00Z,26.4345,-81.9647,2.845,6.17,1111122 
SCCF RECON,ioos:station:SCCF:16:1,2009-10-02T04:00:00Z,26.4345,-81.9647,2.906,5.98,1111122 
SCCF RECON,ioos:station:SCCF:16:1,2009-10-02T05:00:00Z,26.4345,-81.9647,2.855,5.72,1111122 
SCCF RECON,ioos:station:SCCF:16:1,2009-10-02T06:00:00Z,26.4345,-81.9647,2.728,5.41,1111122 
SCCF RECON,ioos:station:SCCF:16:1,2009-10-02T07:00:00Z,26.4345,-81.9647,2.563,5.22,1111122 
SCCF RECON,ioos:station:SCCF:16:1,2009-10-02T08:00:00Z,26.4345,-81.9647,2.437,5.25,1111122 
SCCF RECON,ioos:station:SCCF:16:1,2009-10-02T09:00:00Z,26.4345,-81.9647,2.32,5.18,1111122 
SCCF RECON,ioos:station:SCCF:16:1,2009-10-02T10:00:00Z,26.4345,-81.9647,2.295,4.9,1111122 
SCCF RECON,ioos:station:SCCF:16:1,2009-10-02T11:00:00Z,26.4345,-81.9647,2.363,4.93,1111122 
SCCF RECON,ioos:station:SCCF:16:1,2009-10-02T12:00:00Z,26.4345,-81.9647,2.501,4.79,1111122 
SCCF RECON,ioos:station:SCCF:16:1,2009-10-02T13:00:00Z,26.4345,-81.9647,2.65,4.81,1111122 
SCCF RECON,ioos:station:SCCF:16:1,2009-10-02T14:00:00Z,26.4345,-81.9647,2.784,4.66,1111122 
SCCF RECON,ioos:station:SCCF:16:1,2009-10-02T15:00:00Z,26.4345,-81.9647,2.858,4.74,1111122 
SCCF RECON,ioos:station:SCCF:16:1,2009-10-02T16:00:00Z,26.4345,-81.9647,2.926,4.85,1111122 
SCCF RECON,ioos:station:SCCF:16:1,2009-10-02T17:00:00Z,26.4345,-81.9647,2.906,4.8,1111122 
SCCF RECON,ioos:station:SCCF:16:1,2009-10-02T18:00:00Z,26.4345,-81.9647,2.797,4.52,1111122 
SCCF RECON,ioos:station:SCCF:16:1,2009-10-02T19:00:00Z,26.4345,-81.9647,2.58,5.08,1111122 
SCCF RECON,ioos:station:SCCF:16:1,2009-10-02T20:00:00Z,26.4345,-81.9647,2.417,5.18,1111122 
SCCF RECON,ioos:station:SCCF:16:1,2009-10-02T21:00:00Z,26.4345,-81.9647,2.359,5.55,1111122 
SCCF RECON,ioos:station:SCCF:16:1,2009-10-02T22:00:00Z,26.4345,-81.9647,2.296,5.91,1111122 
SCCF RECON,ioos:station:SCCF:16:1,2009-10-02T23:00:00Z,26.4345,-81.9647,2.304,6.14,1111122 
SCCF RECON,ioos:station:SCCF:16:1,2009-10-03T00:00:00Z,26.4345,-81.9647,2.393,5.92,1111122 
SCCF RECON,ioos:station:SCCF:16:1,2009-10-03T01:00:00Z,26.4345,-81.9647,2.542,5.85,1111122 
SCCF RECON,ioos:station:SCCF:16:1,2009-10-03T02:00:00Z,26.4345,-81.9647,2.706,6.18,1111122 
SCCF RECON,ioos:station:SCCF:16:1,2009-10-03T03:00:00Z,26.4345,-81.9647,2.795,6.1,1111122 
SCCF RECON,ioos:station:SCCF:16:1,2009-10-03T04:00:00Z,26.4345,-81.9647,2.874,5.55,1111122 
SCCF RECON,ioos:station:SCCF:16:1,2009-10-03T05:00:00Z,26.4345,-81.9647,2.871,5.55,1111122 
SCCF RECON,ioos:station:SCCF:16:1,2009-10-03T06:00:00Z,26.4345,-81.9647,2.783,5.2,1111122 
SCCF RECON,ioos:station:SCCF:16:1,2009-10-03T07:00:00Z,26.4345,-81.9647,2.612,5.1,1111122 
SCCF RECON,ioos:station:SCCF:16:1,2009-10-03T08:00:00Z,26.4345,-81.9647,2.439,4.9,1111122 
SCCF RECON,ioos:station:SCCF:16:1,2009-10-03T09:00:00Z,26.4345,-81.9647,2.29,4.91,1111122 
SCCF RECON,ioos:station:SCCF:16:1,2009-10-03T10:00:00Z,26.4345,-81.9647,2.148,4.81,1111122 
SCCF RECON,ioos:station:SCCF:16:1,2009-10-03T11:00:00Z,26.4345,-81.9647,2.149,4.62,1111122 
SCCF RECON,ioos:station:SCCF:16:1,2009-10-03T12:00:00Z,26.4345,-81.9647,2.249,4.07,1111122 
SCCF RECON,ioos:station:SCCF:16:1,2009-10-03T13:00:00Z,26.4345,-81.9647,2.5,4.28,1111122 
SCCF RECON,ioos:station:SCCF:16:1,2009-10-03T14:00:00Z,26.4345,-81.9647,2.703,4.94,1111122 
SCCF RECON,ioos:station:SCCF:16:1,2009-10-03T15:00:00Z,26.4345,-81.9647,2.788,4.82,1111122 
SCCF RECON,ioos:station:SCCF:16:1,2009-10-03T16:00:00Z,26.4345,-81.9647,2.875,4.95,1111122 
SCCF RECON,ioos:station:SCCF:16:1,2009-10-03T17:00:00Z,26.4345,-81.9647,2.909,5.36,1111122 
SCCF RECON,ioos:station:SCCF:16:1,2009-10-03T18:00:00Z,26.4345,-81.9647,2.834,5.57,1111122 
SCCF RECON,ioos:station:SCCF:16:1,2009-10-03T19:00:00Z,26.4345,-81.9647,2.693,5.33,1111122 
SCCF RECON,ioos:station:SCCF:16:1,2009-10-03T20:00:00Z,26.4345,-81.9647,2.533,5.8,1111122 
SCCF RECON,ioos:station:SCCF:16:1,2009-10-03T21:00:00Z,26.4345,-81.9647,2.442,5.65,1111122 
SCCF RECON,ioos:station:SCCF:16:1,2009-10-03T22:00:00Z,26.4345,-81.9647,2.346,5.52,1111122 
SCCF RECON,ioos:station:SCCF:16:1,2009-10-03T23:00:00Z,26.4345,-81.9647,2.275,5.69,1111122 
SCCF RECON,ioos:station:SCCF:16:1,2009-10-04T00:00:00Z,26.4345,-81.9647,2.333,5.57,1111122 
SCCF RECON,ioos:station:SCCF:16:1,2009-10-04T01:00:00Z,26.4345,-81.9647,2.519,5.45,1111122 
SCCF RECON,ioos:station:SCCF:16:1,2009-10-04T02:00:00Z,26.4345,-81.9647,2.698,5.96,1111122 
SCCF RECON,ioos:station:SCCF:16:1,2009-10-04T03:00:00Z,26.4345,-81.9647,2.824,6.16,1111122 
SCCF RECON,ioos:station:SCCF:16:1,2009-10-04T04:00:00Z,26.4345,-81.9647,2.891,5.75,1111122 
SCCF RECON,ioos:station:SCCF:16:1,2009-10-04T05:00:00Z,26.4345,-81.9647,2.906,5.51,1111122 
SCCF RECON,ioos:station:SCCF:16:1,2009-10-04T06:00:00Z,26.4345,-81.9647,2.833,5.22,1111122 
SCCF RECON,ioos:station:SCCF:16:1,2009-10-04T07:00:00Z,26.4345,-81.9647,2.67,4.27,1111122 
SCCF RECON,ioos:station:SCCF:16:1,2009-10-04T08:00:00Z,26.4345,-81.9647,2.457,5.06,1111122 
SCCF RECON,ioos:station:SCCF:16:1,2009-10-04T09:00:00Z,26.4345,-81.9647,2.283,5.25,1111122 
SCCF RECON,ioos:station:SCCF:16:1,2009-10-04T10:00:00Z,26.4345,-81.9647,2.145,4.83,1111122 
SCCF RECON,ioos:station:SCCF:16:1,2009-10-04T11:00:00Z,26.4345,-81.9647,2.052,4.72,1111122 
SCCF RECON,ioos:station:SCCF:16:1,2009-10-04T12:00:00Z,26.4345,-81.9647,2.088,4.5,1111122 
SCCF RECON,ioos:station:SCCF:16:1,2009-10-04T13:00:00Z,26.4345,-81.9647,2.291,4.17,1111122 
SCCF RECON,ioos:station:SCCF:16:1,2009-10-04T14:00:00Z,26.4345,-81.9647,2.549,4.83,1111122 
SCCF RECON,ioos:station:SCCF:16:1,2009-10-04T15:00:00Z,26.4345,-81.9647,2.712,5.43,1111122 
SCCF RECON,ioos:station:SCCF:16:1,2009-10-04T16:00:00Z,26.4345,-81.9647,2.797,5.26,1111122 
SCCF RECON,ioos:station:SCCF:16:1,2009-10-04T17:00:00Z,26.4345,-81.9647,2.863,5.8,1111122 
SCCF RECON,ioos:station:SCCF:16:1,2009-10-04T18:00:00Z,26.4345,-81.9647,2.854,5.35,1111122 
SCCF RECON,ioos:station:SCCF:16:1,2009-10-04T19:00:00Z,26.4345,-81.9647,2.785,5.16,1111122 
SCCF RECON,ioos:station:SCCF:16:1,2009-10-04T20:00:00Z,26.4345,-81.9647,2.655,5.49,1111122 
SCCF RECON,ioos:station:SCCF:16:1,2009-10-04T21:00:00Z,26.4345,-81.9647,2.557,5.76,1111122 
SCCF RECON,ioos:station:SCCF:16:1,2009-10-04T22:00:00Z,26.4345,-81.9647,2.462,5.56,1111122 
SCCF RECON,ioos:station:SCCF:16:1,2009-10-04T23:00:00Z,26.4345,-81.9647,2.413,5.61,1111122 
SCCF RECON,ioos:station:SCCF:16:1,2009-10-05T00:00:00Z,26.4345,-81.9647,2.406,6.13,1111122 
SCCF RECON,ioos:station:SCCF:16:1,2009-10-05T01:00:00Z,26.4345,-81.9647,2.489,5.96,1111122 
SCCF RECON,ioos:station:SCCF:16:1,2009-10-05T02:00:00Z,26.4345,-81.9647,2.679,5.94,1111122 
SCCF RECON,ioos:station:SCCF:16:1,2009-10-05T03:00:00Z,26.4345,-81.9647,2.849,6.15,1111122 
SCCF RECON,ioos:station:SCCF:16:1,2009-10-05T04:00:00Z,26.4345,-81.9647,2.931,5.86,1111122 
SCCF RECON,ioos:station:SCCF:16:1,2009-10-05T05:00:00Z,26.4345,-81.9647,2.944,5.61,1111122 
SCCF RECON,ioos:station:SCCF:16:1,2009-10-05T06:00:00Z,26.4345,-81.9647,2.936,5.99,1111122 
SCCF RECON,ioos:station:SCCF:16:1,2009-10-05T07:00:00Z,26.4345,-81.9647,2.827,5.89,1111122 
SCCF RECON,ioos:station:SCCF:16:1,2009-10-05T08:00:00Z,26.4345,-81.9647,2.605,5.59,1111122 
SCCF RECON,ioos:station:SCCF:16:1,2009-10-05T09:00:00Z,26.4345,-81.9647,2.414,5.56,1111122 
SCCF RECON,ioos:station:SCCF:16:1,2009-10-05T10:00:00Z,26.4345,-81.9647,2.241,5.02,1111122 
SCCF RECON,ioos:station:SCCF:16:1,2009-10-05T11:00:00Z,26.4345,-81.9647,2.083,5.09,1111122 
SCCF RECON,ioos:station:SCCF:16:1,2009-10-05T12:00:00Z,26.4345,-81.9647,2.007,4.92,1111122 
SCCF RECON,ioos:station:SCCF:16:1,2009-10-05T13:00:00Z,26.4345,-81.9647,2.192,4.72,1111122 
SCCF RECON,ioos:station:SCCF:16:1,2009-10-05T14:00:00Z,26.4345,-81.9647,2.436,4.73,1111122 
SCCF RECON,ioos:station:SCCF:16:1,2009-10-05T15:00:00Z,26.4345,-81.9647,2.667,5.13,1111122 
SCCF RECON,ioos:station:SCCF:16:1,2009-10-05T16:00:00Z,26.4345,-81.9647,2.778,5.35,1111122 
SCCF RECON,ioos:station:SCCF:16:1,2009-10-05T17:00:00Z,26.4345,-81.9647,2.87,5.37,1111122 
SCCF RECON,ioos:station:SCCF:16:1,2009-10-05T18:00:00Z,26.4345,-81.9647,2.876,5.26,1111122 
SCCF RECON,ioos:station:SCCF:16:1,2009-10-05T19:00:00Z,26.4345,-81.9647,2.821,5.56,1111122 
SCCF RECON,ioos:station:SCCF:16:1,2009-10-05T20:00:00Z,26.4345,-81.9647,2.728,5.7,1111122 
SCCF RECON,ioos:station:SCCF:16:1,2009-10-05T21:00:00Z,26.4345,-81.9647,2.621,5.35,1111122 
SCCF RECON,ioos:station:SCCF:16:1,2009-10-05T22:00:00Z,26.4345,-81.9647,2.549,5.37,1111122 
SCCF RECON,ioos:station:SCCF:16:1,2009-10-05T23:00:00Z,26.4345,-81.9647,2.484,5.47,1111122 
SCCF RECON,ioos:station:SCCF:16:1,2009-10-06T00:00:00Z,26.4345,-81.9647,2.425,5.32,1111122 
SCCF RECON,ioos:station:SCCF:16:1,2009-10-06T01:00:00Z,26.4345,-81.9647,2.471,5.34,1111122 
SCCF RECON,ioos:station:SCCF:16:1,2009-10-06T02:00:00Z,26.4345,-81.9647,2.631,5.35,1111122 
SCCF RECON,ioos:station:SCCF:16:1,2009-10-06T03:00:00Z,26.4345,-81.9647,2.789,5.36,1111122 
SCCF RECON,ioos:station:SCCF:16:1,2009-10-06T04:00:00Z,26.4345,-81.9647,2.899,5.27,1111122 
SCCF RECON,ioos:station:SCCF:16:1,2009-10-06T05:00:00Z,26.4345,-81.9647,2.965,5.07,1111122 
SCCF RECON,ioos:station:SCCF:16:1,2009-10-06T06:00:00Z,26.4345,-81.9647,2.966,4.75,1111122 
SCCF RECON,ioos:station:SCCF:16:1,2009-10-06T07:00:00Z,26.4345,-81.9647,2.889,4.41,1111122 
SCCF RECON,ioos:station:SCCF:16:1,2009-10-06T08:00:00Z,26.4345,-81.9647,2.722,4.13,1111122 
SCCF RECON,ioos:station:SCCF:16:1,2009-10-06T09:00:00Z,26.4345,-81.9647,2.5,4.48,1111122 
SCCF RECON,ioos:station:SCCF:16:1,2009-10-06T10:00:00Z,26.4345,-81.9647,2.31,4.48,1111122 
SCCF RECON,ioos:station:SCCF:16:1,2009-10-06T11:00:00Z,26.4345,-81.9647,2.126,4.65,1111122 
SCCF RECON,ioos:station:SCCF:16:1,2009-10-06T12:00:00Z,26.4345,-81.9647,1.996,4.55,1111122 
SCCF RECON,ioos:station:SCCF:16:1,2009-10-06T13:00:00Z,26.4345,-81.9647,2.007,4.51,1111122 
SCCF RECON,ioos:station:SCCF:16:1,2009-10-06T14:00:00Z,26.4345,-81.9647,2.194,4.31,1111122 
SCCF RECON,ioos:station:SCCF:16:1,2009-10-06T15:00:00Z,26.4345,-81.9647,2.45,4.81,1111122 
SCCF RECON,ioos:station:SCCF:16:1,2009-10-06T16:00:00Z,26.4345,-81.9647,2.637,5.04,1111122 
SCCF RECON,ioos:station:SCCF:16:1,2009-10-06T17:00:00Z,26.4345,-81.9647,2.745,4.99,1111122 
SCCF RECON,ioos:station:SCCF:16:1,2009-10-06T18:00:00Z,26.4345,-81.9647,2.815,5.13,1111122 
SCCF RECON,ioos:station:SCCF:16:1,2009-10-06T19:00:00Z,26.4345,-81.9647,2.833,5.55,1111122 
SCCF RECON,ioos:station:SCCF:16:1,2009-10-06T20:00:00Z,26.4345,-81.9647,2.772,5.74,1111122 
SCCF RECON,ioos:station:SCCF:16:1,2009-10-06T21:00:00Z,26.4345,-81.9647,2.684,5.48,1111122 
SCCF RECON,ioos:station:SCCF:16:1,2009-10-06T22:00:00Z,26.4345,-81.9647,2.592,5.62,1111122 
SCCF RECON,ioos:station:SCCF:16:1,2009-10-06T23:00:00Z,26.4345,-81.9647,2.561,5.85,1111122 
SCCF RECON,ioos:station:SCCF:16:1,2009-10-07T00:00:00Z,26.4345,-81.9647,2.505,5.5,1111122 
SCCF RECON,ioos:station:SCCF:16:1,2009-10-07T01:00:00Z,26.4345,-81.9647,2.541,5.13,1111122 
SCCF RECON,ioos:station:SCCF:16:1,2009-10-07T02:00:00Z,26.4345,-81.9647,2.623,5.5,1111122 
SCCF RECON,ioos:station:SCCF:16:1,2009-10-07T03:00:00Z,26.4345,-81.9647,2.799,5.81,1111122 
SCCF RECON,ioos:station:SCCF:16:1,2009-10-07T04:00:00Z,26.4345,-81.9647,2.932,5.47,1111122 
SCCF RECON,ioos:station:SCCF:16:1,2009-10-07T05:00:00Z,26.4345,-81.9647,2.974,5.42,1111122 
SCCF RECON,ioos:station:SCCF:16:1,2009-10-07T06:00:00Z,26.4345,-81.9647,3.033,5.48,1111122 
SCCF RECON,ioos:station:SCCF:16:1,2009-10-07T07:00:00Z,26.4345,-81.9647,2.977,5.16,1111122 
SCCF RECON,ioos:station:SCCF:16:1,2009-10-07T08:00:00Z,26.4345,-81.9647,2.854,4.56,1111122 
SCCF RECON,ioos:station:SCCF:16:1,2009-10-07T09:00:00Z,26.4345,-81.9647,2.651,5.03,1111122 
SCCF RECON,ioos:station:SCCF:16:1,2009-10-07T10:00:00Z,26.4345,-81.9647,2.485,4.7,1111122 
SCCF RECON,ioos:station:SCCF:16:1,2009-10-07T11:00:00Z,26.4345,-81.9647,2.299,4.42,1111122 
SCCF RECON,ioos:station:SCCF:16:1,2009-10-07T12:00:00Z,26.4345,-81.9647,2.107,4.74,1111122 
SCCF RECON,ioos:station:SCCF:16:1,2009-10-07T13:00:00Z,26.4345,-81.9647,2.042,4.76,1111122 
SCCF RECON,ioos:station:SCCF:16:1,2009-10-07T14:00:00Z,26.4345,-81.9647,2.081,4.48,1111122 
SCCF RECON,ioos:station:SCCF:16:1,2009-10-07T15:00:00Z,26.4345,-81.9647,2.283,4.5,1111122 
SCCF RECON,ioos:station:SCCF:16:1,2009-10-07T17:00:00Z,26.4345,-81.9647,2.61,5.29,1111122 
SCCF RECON,ioos:station:SCCF:16:1,2009-10-07T18:00:00Z,26.4345,-81.9647,2.672,5.5,1111122 
SCCF RECON,ioos:station:SCCF:16:1,2009-10-07T19:00:00Z,26.4345,-81.9647,2.737,5.75,1111122 
SCCF RECON,ioos:station:SCCF:16:1,2009-10-07T20:00:00Z,26.4345,-81.9647,2.744,5.76,1111122 
SCCF RECON,ioos:station:SCCF:16:1,2009-10-07T21:00:00Z,26.4345,-81.9647,2.686,5.82,1111122 
SCCF RECON,ioos:station:SCCF:16:1,2009-10-07T22:00:00Z,26.4345,-81.9647,2.611,5.74,1111122 
SCCF RECON,ioos:station:SCCF:16:1,2009-10-07T23:00:00Z,26.4345,-81.9647,2.561,5.58,1111122 
SCCF RECON,ioos:station:SCCF:16:1,2009-10-08T00:00:00Z,26.4345,-81.9647,2.51,5.48,1111122 
SCCF RECON,ioos:station:SCCF:16:1,2009-10-08T01:00:00Z,26.4345,-81.9647,2.486,5.88,1111122 
SCCF RECON,ioos:station:SCCF:16:1,2009-10-08T02:00:00Z,26.4345,-81.9647,2.54,5.75,1111122 
SCCF RECON,ioos:station:SCCF:16:1,2009-10-08T03:00:00Z,26.4345,-81.9647,2.653,5.74,1111122 
SCCF RECON,ioos:station:SCCF:16:1,2009-10-08T04:00:00Z,26.4345,-81.9647,2.801,5.74,1111122 
SCCF RECON,ioos:station:SCCF:16:1,2009-10-08T05:00:00Z,26.4345,-81.9647,2.896,5.66,1111122 
SCCF RECON,ioos:station:SCCF:16:1,2009-10-08T06:00:00Z,26.4345,-81.9647,2.926,5.63,1111122 
SCCF RECON,ioos:station:SCCF:16:1,2009-10-08T07:00:00Z,26.4345,-81.9647,2.912,5.24,1111122 
SCCF RECON,ioos:station:SCCF:16:1,2009-10-08T08:00:00Z,26.4345,-81.9647,2.853,4.77,1111122 
SCCF RECON,ioos:station:SCCF:16:1,2009-10-08T09:00:00Z,26.4345,-81.9647,2.726,4.53,1111122 
SCCF RECON,ioos:station:SCCF:16:1,2009-10-08T10:00:00Z,26.4345,-81.9647,2.551,4.67,1111122 
SCCF RECON,ioos:station:SCCF:16:1,2009-10-08T11:00:00Z,26.4345,-81.9647,2.351,4.91,1111122 
SCCF RECON,ioos:station:SCCF:16:1,2009-10-08T12:00:00Z,26.4345,-81.9647,2.174,4.81,1111122 
SCCF RECON,ioos:station:SCCF:16:1,2009-10-08T13:00:00Z,26.4345,-81.9647,2.027,4.58,1111122 
SCCF RECON,ioos:station:SCCF:16:1,2009-10-08T14:00:00Z,26.4345,-81.9647,1.96,4.62,1111122 
SCCF RECON,ioos:station:SCCF:16:1,2009-10-08T15:00:00Z,26.4345,-81.9647,2.053,4.5,1111122 
SCCF RECON,ioos:station:SCCF:16:1,2009-10-08T16:00:00Z,26.4345,-81.9647,2.237,4.72,1111122 
SCCF RECON,ioos:station:SCCF:16:1,2009-10-08T17:00:00Z,26.4345,-81.9647,2.404,5.13,1111122 
SCCF RECON,ioos:station:SCCF:16:1,2009-10-08T18:00:00Z,26.4345,-81.9647,2.508,5.75,1111122 
SCCF RECON,ioos:station:SCCF:16:1,2009-10-08T19:00:00Z,26.4345,-81.9647,2.606,5.53,1111122 
SCCF RECON,ioos:station:SCCF:16:1,2009-10-08T20:00:00Z,26.4345,-81.9647,2.667,5.09,1111122 
SCCF RECON,ioos:station:SCCF:16:1,2009-10-08T21:00:00Z,26.4345,-81.9647,2.667,5.57,1111122 
SCCF RECON,ioos:station:SCCF:16:1,2009-10-08T22:00:00Z,26.4345,-81.9647,2.652,5.82,1111122 
SCCF RECON,ioos:station:SCCF:16:1,2009-10-08T23:00:00Z,26.4345,-81.9647,2.609,5.65,1111122 
SCCF RECON,ioos:station:SCCF:16:1,2009-10-09T00:00:00Z,26.4345,-81.9647,2.561,5.38,1111122 
SCCF RECON,ioos:station:SCCF:16:1,2009-10-09T01:00:00Z,26.4345,-81.9647,2.545,5.23,1111122 
SCCF RECON,ioos:station:SCCF:16:1,2009-10-09T02:00:00Z,26.4345,-81.9647,2.582,5.5,1111122 
SCCF RECON,ioos:station:SCCF:16:1,2009-10-09T03:00:00Z,26.4345,-81.9647,2.674,5.44,1111122 
SCCF RECON,ioos:station:SCCF:16:1,2009-10-09T04:00:00Z,26.4345,-81.9647,2.768,5.49,1111122 
SCCF RECON,ioos:station:SCCF:16:1,2009-10-09T05:00:00Z,26.4345,-81.9647,2.854,6.2,1111122 
SCCF RECON,ioos:station:SCCF:16:1,2009-10-09T06:00:00Z,26.4345,-81.9647,2.908,5.72,1111122 
SCCF RECON,ioos:station:SCCF:16:1,2009-10-09T07:00:00Z,26.4345,-81.9647,2.913,5.5,1111122 
SCCF RECON,ioos:station:SCCF:16:1,2009-10-09T08:00:00Z,26.4345,-81.9647,2.923,5.35,1111122 
SCCF RECON,ioos:station:SCCF:16:1,2009-10-09T09:00:00Z,26.4345,-81.9647,2.88,5.05,1111122 
SCCF RECON,ioos:station:SCCF:16:1,2009-10-09T10:00:00Z,26.4345,-81.9647,2.75,4.96,1111122 
SCCF RECON,ioos:station:SCCF:16:1,2009-10-09T11:00:00Z,26.4345,-81.9647,2.609,4.82,1111122 
SCCF RECON,ioos:station:SCCF:16:1,2009-10-09T12:00:00Z,26.4345,-81.9647,2.434,4.83,1111122 
SCCF RECON,ioos:station:SCCF:16:1,2009-10-09T13:00:00Z,26.4345,-81.9647,2.243,4.93,1111122 
SCCF RECON,ioos:station:SCCF:16:1,2009-10-09T14:00:00Z,26.4345,-81.9647,2.124,4.61,1111122 
SCCF RECON,ioos:station:SCCF:16:1,2009-10-09T15:00:00Z,26.4345,-81.9647,2.067,4.38,1111122 
SCCF RECON,ioos:station:SCCF:16:1,2009-10-09T16:00:00Z,26.4345,-81.9647,2.168,4.56,1111122 
SCCF RECON,ioos:station:SCCF:16:1,2009-10-09T17:00:00Z,26.4345,-81.9647,2.31,4.49,1111122 
SCCF RECON,ioos:station:SCCF:16:1,2009-10-09T18:00:00Z,26.4345,-81.9647,2.43,5.46,1111122 
SCCF RECON,ioos:station:SCCF:16:1,2009-10-09T19:00:00Z,26.4345,-81.9647,2.51,5.9,1111122 
SCCF RECON,ioos:station:SCCF:16:1,2009-10-09T20:00:00Z,26.4345,-81.9647,2.564,6.08,1111122 
SCCF RECON,ioos:station:SCCF:16:1,2009-10-09T21:00:00Z,26.4345,-81.9647,2.627,5.98,1111122 
SCCF RECON,ioos:station:SCCF:16:1,2009-10-09T22:00:00Z,26.4345,-81.9647,2.667,6.04,1111122 
SCCF RECON,ioos:station:SCCF:16:1,2009-10-09T23:00:00Z,26.4345,-81.9647,2.673,5.82,1111122 
SCCF RECON,ioos:station:SCCF:16:1,2009-10-10T00:00:00Z,26.4345,-81.9647,2.643,5.48,1111122 
SCCF RECON,ioos:station:SCCF:16:1,2009-10-10T01:00:00Z,26.4345,-81.9647,2.617,5.5,1111122 
SCCF RECON,ioos:station:SCCF:16:1,2009-10-10T02:00:00Z,26.4345,-81.9647,2.607,5.25,1111122 
SCCF RECON,ioos:station:SCCF:16:1,2009-10-10T03:00:00Z,26.4345,-81.9647,2.624,5.22,1111122 
SCCF RECON,ioos:station:SCCF:16:1,2009-10-10T04:00:00Z,26.4345,-81.9647,2.659,5.32,1111122 
SCCF RECON,ioos:station:SCCF:16:1,2009-10-10T05:00:00Z,26.4345,-81.9647,2.725,5.51,1111122 
SCCF RECON,ioos:station:SCCF:16:1,2009-10-10T06:00:00Z,26.4345,-81.9647,2.818,5.48,1111122 
SCCF RECON,ioos:station:SCCF:16:1,2009-10-10T07:00:00Z,26.4345,-81.9647,2.882,5.5,1111122 
SCCF RECON,ioos:station:SCCF:16:1,2009-10-10T08:00:00Z,26.4345,-81.9647,2.898,5.33,1111122 
SCCF RECON,ioos:station:SCCF:16:1,2009-10-10T09:00:00Z,26.4345,-81.9647,2.882,5.11,1111122 
SCCF RECON,ioos:station:SCCF:16:1,2009-10-10T10:00:00Z,26.4345,-81.9647,2.832,4.88,1111122 
SCCF RECON,ioos:station:SCCF:16:1,2009-10-10T11:00:00Z,26.4345,-81.9647,2.752,4.6,1111122 
SCCF RECON,ioos:station:SCCF:16:1,2009-10-10T12:00:00Z,26.4345,-81.9647,2.628,4.76,1111122 
SCCF RECON,ioos:station:SCCF:16:1,2009-10-10T13:00:00Z,26.4345,-81.9647,2.471,4.72,1111122 
SCCF RECON,ioos:station:SCCF:16:1,2009-10-10T14:00:00Z,26.4345,-81.9647,2.288,4.86,1111122 
SCCF RECON,ioos:station:SCCF:16:1,2009-10-10T15:00:00Z,26.4345,-81.9647,2.103,4.98,1111122 
SCCF RECON,ioos:station:SCCF:16:1,2009-10-10T16:00:00Z,26.4345,-81.9647,2.098,4.98,1111122 
SCCF RECON,ioos:station:SCCF:16:1,2009-10-10T17:00:00Z,26.4345,-81.9647,2.179,4.99,1111122 
SCCF RECON,ioos:station:SCCF:16:1,2009-10-10T18:00:00Z,26.4345,-81.9647,2.309,4.96,1111122 
SCCF RECON,ioos:station:SCCF:16:1,2009-10-10T19:00:00Z,26.4345,-81.9647,2.415,5.9,1111122 
SCCF RECON,ioos:station:SCCF:16:1,2009-10-10T20:00:00Z,26.4345,-81.9647,2.48,6.23,1111122 
SCCF RECON,ioos:station:SCCF:16:1,2009-10-10T21:00:00Z,26.4345,-81.9647,2.554,5.91,1111122 
SCCF RECON,ioos:station:SCCF:16:1,2009-10-10T22:00:00Z,26.4345,-81.9647,2.598,5.78,1111122 
SCCF RECON,ioos:station:SCCF:16:1,2009-10-10T23:00:00Z,26.4345,-81.9647,2.68,5.77,1111122 
SCCF RECON,ioos:station:SCCF:16:1,2009-10-11T00:00:00Z,26.4345,-81.9647,2.69,5.97,1111122 
SCCF RECON,ioos:station:SCCF:16:1,2009-10-11T01:00:00Z,26.4345,-81.9647,2.674,5.77,1111122 
SCCF RECON,ioos:station:SCCF:16:1,2009-10-11T02:00:00Z,26.4345,-81.9647,2.649,5.73,1111122 
SCCF RECON,ioos:station:SCCF:16:1,2009-10-11T03:00:00Z,26.4345,-81.9647,2.627,5.42,1111122 
SCCF RECON,ioos:station:SCCF:16:1,2009-10-11T04:00:00Z,26.4345,-81.9647,2.615,5.03,1111122 
SCCF RECON,ioos:station:SCCF:16:1,2009-10-11T05:00:00Z,26.4345,-81.9647,2.631,5.36,1111122 
SCCF RECON,ioos:station:SCCF:16:1,2009-10-11T06:00:00Z,26.4345,-81.9647,2.692,5.32,1111122 
SCCF RECON,ioos:station:SCCF:16:1,2009-10-11T07:00:00Z,26.4345,-81.9647,2.752,5.39,1111122 
SCCF RECON,ioos:station:SCCF:16:1,2009-10-11T08:00:00Z,26.4345,-81.9647,2.783,5.44,1111122 
SCCF RECON,ioos:station:SCCF:16:1,2009-10-11T09:00:00Z,26.4345,-81.9647,2.805,5.29,1111122 
SCCF RECON,ioos:station:SCCF:16:1,2009-10-11T10:00:00Z,26.4345,-81.9647,2.825,5.04,1111122 
SCCF RECON,ioos:station:SCCF:16:1,2009-10-11T11:00:00Z,26.4345,-81.9647,2.832,5.05,1111122 
SCCF RECON,ioos:station:SCCF:16:1,2009-10-11T12:00:00Z,26.4345,-81.9647,2.765,4.65,1111122 
SCCF RECON,ioos:station:SCCF:16:1,2009-10-11T13:00:00Z,26.4345,-81.9647,2.624,4.82,1111122 
SCCF RECON,ioos:station:SCCF:16:1,2009-10-11T14:00:00Z,26.4345,-81.9647,2.472,4.4,1111122 
SCCF RECON,ioos:station:SCCF:16:1,2009-10-11T15:00:00Z,26.4345,-81.9647,2.302,4.47,1111122 
SCCF RECON,ioos:station:SCCF:16:1,2009-10-11T16:00:00Z,26.4345,-81.9647,2.158,4.78,1111122 
SCCF RECON,ioos:station:SCCF:16:1,2009-10-11T17:00:00Z,26.4345,-81.9647,2.091,4.68,1111122 
SCCF RECON,ioos:station:SCCF:16:1,2009-10-11T18:00:00Z,26.4345,-81.9647,2.096,4.91,1111122 
SCCF RECON,ioos:station:SCCF:16:1,2009-10-11T19:00:00Z,26.4345,-81.9647,2.213,4.85,1111122 
SCCF RECON,ioos:station:SCCF:16:1,2009-10-11T20:00:00Z,26.4345,-81.9647,2.341,4.92,1111122 